Theta_e
342 338 341 341 319 316 313 313 320 318 319 324 325 323 324 328 327 318 335 351 352 351 353 353 359 357 356 358 360 359 360 360 360 360 360 360 359 358 357 356 354 353 353 354 355 355 356 357 358
331 337 339 330 316 309 312 317 315 319 323 326 325 327 327 326 334 332 332 351 351 352 353 353 358 357 356 356 358 359 359 359 359 360 359 359 358 356 354 353 353 355 355 355 356 357 357 357 357
333 340 330 320 316 310 311 317 317 321 324 323 325 327 333 329 335 335 336 350 351 350 352 355 358 357 357 356 357 358 358 358 358 358 358 356 355 353 351 352 354 354 355 357 356 356 356 356 357
335 334 330 315 314 317 317 320 321 321 323 323 326 326 334 338 337 338 339 346 345 346 351 355 357 357 357 357 357 357 357 358 357 357 356 355 353 351 351 351 353 355 356 355 353 352 352 353 355
327 327 317 314 315 320 321 323 323 318 319 321 326 326 329 337 341 337 337 342 341 344 350 351 357 357 356 354 355 356 357 357 357 355 354 353 351 348 349 350 353 354 354 353 352 352 350 351 355
321 322 311 310 314 319 322 323 320 319 322 322 325 329 330 339 334 335 338 339 342 346 344 348 355 356 356 355 355 356 357 356 356 355 354 352 349 347 348 352 354 354 354 353 354 358 353 358 358
318 317 313 313 314 318 320 324 319 321 320 321 327 327 332 334 335 337 338 339 341 343 343 344 347 352 355 355 355 355 355 355 356 355 354 352 350 350 353 354 355 355 355 353 358 358 359 360 355
321 319 312 314 315 315 322 320 323 322 321 328 326 323 328 334 337 338 336 335 335 340 342 340 343 345 346 348 353 353 352 353 353 353 353 353 352 353 356 357 358 356 351 359 358 359 359 357 354
326 314 312 313 316 315 323 319 323 325 323 326 327 328 335 338 338 335 333 333 332 334 336 336 336 338 338 340 349 352 352 351 351 351 353 352 347 349 351 357 357 352 359 359 359 359 358 355 353
318 314 315 318 318 318 319 320 322 321 322 325 328 333 336 336 334 331 329 329 328 329 330 332 333 334 334 336 345 345 344 345 346 345 347 347 348 353 354 354 353 355 359 360 359 359 357 355 342
319 315 320 318 318 319 318 318 321 320 319 324 327 330 333 333 332 329 329 328 328 328 329 330 333 336 332 334 340 339 340 341 343 347 350 348 351 355 350 347 338 347 358 352 356 355 349 344 341
315 319 320 319 319 317 316 318 318 320 322 326 332 332 331 330 330 328 326 327 327 326 328 330 333 335 334 337 334 337 337 340 343 347 354 352 355 355 352 335 336 337 350 346 347 349 349 342 340
316 317 320 319 318 318 318 316 316 318 325 329 333 331 329 328 328 328 327 327 326 325 327 330 334 337 341 335 333 338 340 344 347 351 356 356 356 352 349 334 332 343 346 346 347 343 342 340 338
318 317 318 318 318 318 316 316 317 318 325 326 331 329 328 327 326 327 327 325 327 329 329 332 335 344 341 346 341 346 347 349 351 353 356 358 360 359 359 350 349 349 346 343 341 344 344 342 339
316 313 315 316 317 316 319 314 315 320 324 323 328 330 330 329 327 326 328 329 329 330 331 336 337 340 349 346 351 357 350 350 354 353 358 358 364 363 364 351 354 350 349 342 341 344 345 345 341
311 312 307 315 318 319 317 310 318 322 322 322 326 328 330 330 330 329 328 330 331 329 333 336 333 339 344 345 354 350 355 356 353 358 357 358 362 363 367 357 353 351 349 347 341 340 342 342 342
309 303 305 308 315 316 316 313 319 322 322 322 324 326 328 330 332 334 331 329 331 333 335 335 337 336 340 353 350 355 356 356 359 357 357 359 356 357 367 361 355 351 350 348 339 337 342 342 342
303 304 306 306 312 315 312 311 318 321 322 322 322 325 328 329 331 335 334 333 332 334 337 337 338 346 343 345 350 348 351 356 356 357 353 358 355 356 361 361 357 350 350 347 341 341 339 342 339
308 306 305 309 312 311 310 310 313 316 317 317 319 321 324 328 333 337 337 336 336 334 339 340 344 344 345 341 342 345 343 348 350 352 355 360 355 356 362 359 354 352 350 350 343 337 336 336 341
307 305 305 308 310 309 308 308 312 314 315 317 317 318 321 326 331 335 338 338 337 337 339 342 342 350 348 343 343 344 347 346 349 350 355 358 358 359 363 359 354 349 349 349 341 336 334 335 340
306 304 305 305 309 311 309 306 308 312 315 317 318 320 321 322 326 334 337 338 339 340 339 342 344 349 347 349 347 348 348 349 346 347 349 356 357 357 363 358 356 349 346 345 340 338 337 329 337
303 309 308 306 305 301 310 300 309 312 312 314 316 318 319 323 326 332 337 339 340 341 343 341 345 347 350 349 346 343 340 338 340 345 344 347 355 356 361 356 357 348 346 343 342 340 335 335 330
305 311 309 308 305 305 305 302 307 311 310 312 316 318 321 322 324 326 329 338 340 342 342 344 345 343 345 346 343 344 340 340 344 341 350 350 354 355 360 355 353 347 345 341 338 337 336 334 331
311 308 308 308 305 298 304 303 304 308 311 313 318 320 322 323 327 329 333 338 338 340 343 350 349 344 344 345 346 340 339 340 339 340 340 348 352 353 357 354 351 348 343 340 338 337 337 334 332
309 306 298 298 298 298 308 304 307 313 315 316 318 322 324 327 328 331 333 334 338 340 343 345 355 353 353 348 346 346 341 341 340 343 339 343 348 352 352 354 350 347 344 340 340 338 335 333 331
308 307 300 295 296 299 308 302 307 316 317 320 324 325 326 327 329 330 332 333 339 342 344 342 343 348 355 357 353 352 350 343 340 343 339 342 343 351 355 354 351 349 346 343 339 337 334 334 330
308 305 310 304 305 301 304 308 314 317 318 321 323 324 324 325 326 326 327 329 330 334 339 341 342 346 348 350 356 359 355 353 346 344 349 339 343 349 355 354 350 350 346 342 339 334 333 333 331
310 312 303 305 297 296 302 303 305 313 316 319 320 321 322 324 323 324 325 328 328 328 331 333 334 335 339 341 342 343 353 359 356 355 350 348 348 344 348 353 352 349 346 342 337 334 333 332 331
308 306 308 307 305 298 296 302 320 318 320 320 320 321 321 322 322 323 323 324 324 324 324 326 327 327 331 333 334 337 344 349 357 356 355 353 352 352 350 349 351 348 344 341 337 334 333 331 333
311 308 309 302 301 303 302 302 320 320 320 321 320 320 321 322 322 322 322 322 322 322 322 322 325 324 324 327 329 332 336 340 340 346 350 353 352 352 350 351 349 348 345 342 337 334 334 333 331
Wind_Speed
7 8 8 7 9 1 9 7 16 10 16 10 12 11 18 21 13 10 15 24 25 21 17 16 15 14 14 12 12 12 12 11 10 10 11 11 10 10 10 9 8 8 8 8 7 6 5 5 4
10 11 7 4 3 9 7 15 15 14 12 10 10 5 16 18 15 16 12 26 24 20 15 16 16 13 13 13 11 11 11 11 10 10 11 10 9 10 9 8 7 7 7 6 6 5 4 4 4
10 14 7 7 7 7 13 19 13 12 3 5 15 14 11 7 13 13 17 26 23 19 18 15 17 14 13 13 12 11 11 11 11 11 11 9 9 8 7 6 6 6 6 5 5 4 4 4 5
7 8 7 8 22 28 5 15 5 8 13 10 4 15 10 7 7 14 17 22 19 19 20 18 16 14 13 13 12 11 11 10 10 10 9 8 8 7 5 5 4 4 4 4 4 4 3 3 5
10 8 8 13 20 7 13 10 6 14 15 9 19 17 12 10 15 16 17 16 18 20 19 16 16 14 13 13 13 12 11 10 9 9 8 7 6 5 4 3 3 4 4 4 4 3 2 2 3
10 12 8 14 5 12 13 10 5 12 15 8 17 17 11 12 14 15 15 14 19 21 18 15 15 14 13 13 12 11 10 9 9 8 7 6 5 4 3 3 4 3 3 4 5 5 5 4 1
13 13 10 9 19 16 13 3 14 13 18 12 5 19 11 13 15 14 14 13 20 22 19 14 14 13 13 13 12 10 9 9 9 8 7 6 6 6 5 4 4 3 4 5 8 9 8 4 3
13 14 20 13 10 10 7 14 4 15 12 13 13 9 12 17 15 14 13 13 14 21 19 16 14 14 12 12 13 12 11 10 9 8 7 8 8 7 6 6 5 5 5 7 9 11 9 5 4
17 13 6 14 24 29 7 13 13 3 12 15 12 13 17 19 17 14 13 14 13 13 18 17 16 15 14 14 12 11 11 10 9 8 9 8 7 9 10 8 9 7 7 8 10 9 10 9 6
11 12 16 11 11 8 9 10 10 7 12 17 15 16 17 18 16 16 14 13 14 13 16 16 16 15 15 12 13 10 10 8 8 8 9 8 10 7 10 12 13 10 9 7 8 8 8 9 5
16 12 14 8 10 11 9 3 3 3 4 16 20 17 17 17 15 15 14 14 14 13 10 15 15 13 16 13 9 7 6 6 7 9 8 9 8 6 7 5 2 5 9 6 7 6 5 9 6
15 14 8 3 8 5 3 6 0 2 4 12 20 18 17 17 15 15 14 14 15 14 13 15 17 11 13 12 9 9 8 8 8 9 10 7 6 5 8 9 4 6 7 6 7 7 8 3 6
17 12 12 5 5 8 4 7 6 9 11 17 19 17 16 16 15 14 14 14 15 15 14 15 16 10 10 13 9 10 9 9 10 9 9 7 5 5 14 16 12 7 7 6 6 5 4 1 4
10 12 15 11 10 12 10 11 9 8 12 13 18 16 15 16 16 13 12 13 13 13 14 15 15 8 10 8 10 8 8 9 8 8 8 8 5 4 3 14 11 5 2 3 2 5 3 3 6
15 11 12 14 15 15 9 8 13 10 16 12 17 16 16 15 15 14 12 11 13 14 15 13 14 13 6 8 7 4 6 8 5 8 10 9 5 3 2 7 2 5 1 2 3 5 3 1 6
11 12 17 17 18 17 6 13 20 15 14 14 15 14 16 16 16 15 13 12 13 15 15 13 14 16 11 10 5 5 5 5 6 4 7 10 5 5 2 9 4 5 3 0 2 1 3 3 5
13 14 19 20 18 14 12 12 16 12 13 11 15 14 15 17 17 16 16 14 15 14 15 13 13 19 16 8 7 6 6 6 4 5 4 9 8 7 4 3 4 6 3 2 3 3 2 3 3
17 18 15 13 18 11 9 16 13 11 19 13 11 12 15 17 20 19 18 16 15 13 14 13 11 8 17 9 8 8 6 5 5 4 5 11 9 8 7 3 5 6 3 3 2 1 3 3 3
20 14 15 15 7 9 5 8 16 15 13 14 10 11 11 16 19 21 19 18 15 14 12 13 11 11 11 11 9 8 10 8 8 7 8 9 10 9 10 6 7 5 4 4 6 3 0 1 3
11 11 14 15 14 13 15 15 15 15 18 12 11 8 10 11 16 20 20 19 19 16 12 11 10 9 8 10 10 9 7 8 7 7 5 6 9 8 9 8 7 7 5 6 4 5 3 4 5
12 12 13 13 12 11 11 15 16 17 19 12 14 6 7 10 6 18 20 19 18 17 17 13 11 8 9 7 6 6 7 6 8 8 9 7 8 11 10 11 7 11 3 5 8 6 7 4 2
12 14 14 11 12 9 12 14 14 19 17 14 14 5 12 6 10 13 18 18 17 17 17 16 14 12 9 9 7 11 10 11 11 9 10 10 11 10 10 12 8 10 8 6 7 7 7 5 5
11 8 9 7 9 12 15 10 12 1 17 11 10 2 13 14 16 17 19 12 18 15 15 18 18 17 15 15 14 7 11 9 7 9 7 11 12 14 13 13 11 11 9 10 11 13 10 7 4
8 4 8 11 12 12 16 13 12 1 8 9 18 16 14 14 15 14 15 17 16 15 11 2 18 20 20 18 19 21 16 14 10 12 10 8 9 12 15 16 14 13 11 14 14 13 12 9 5
8 9 8 10 11 12 9 14 12 8 13 18 17 16 14 14 14 14 14 14 13 14 13 11 9 11 11 14 15 18 19 16 16 12 13 10 10 12 16 17 17 14 15 15 11 13 14 11 8
14 11 9 13 12 8 12 7 9 17 15 17 18 15 13 13 13 14 13 11 9 10 10 12 12 10 6 11 15 14 15 11 12 12 13 11 13 12 17 17 19 18 16 13 13 10 11 14 11
7 12 12 11 12 12 9 11 20 19 19 18 16 14 13 11 10 9 12 9 10 9 10 11 10 9 10 11 6 10 15 16 15 16 11 15 14 11 18 20 20 19 17 17 15 12 15 14 14
10 10 5 6 8 10 10 7 5 11 14 13 14 13 10 10 10 9 10 9 9 10 10 12 11 11 11 12 11 10 9 12 14 13 14 14 13 16 14 18 21 18 17 17 17 14 15 16 13
6 10 7 9 7 8 9 4 9 12 12 13 11 10 9 8 10 10 10 11 12 13 14 12 12 12 10 10 11 13 10 13 6 9 12 14 15 14 12 16 20 18 18 18 18 18 17 19 15
8 10 10 7 9 9 10 7 12 11 10 10 9 7 6 6 7 8 8 10 10 11 11 11 10 10 11 10 11 11 12 11 11 9 9 9 12 14 17 15 18 20 20 20 20 20 18 20 20
Wind_Direction
165 191 223 251 42 331 259 127 83 94 80 68 61 26 64 51 33 83 113 106 115 126 133 135 130 132 130 129 130 129 127 126 123 115 110 104 96 87 79 74 73 73 71 67 63 59 51 44 29
210 194 224 90 219 230 263 77 59 61 73 87 68 116 73 59 84 102 120 118 118 124 140 139 134 135 134 134 133 134 134 132 125 119 117 110 99 90 81 71 69 73 71 66 61 54 43 29 3
265 273 259 75 276 275 69 80 87 99 116 98 107 60 39 85 106 118 119 115 121 134 143 130 134 139 138 137 139 139 137 134 131 127 121 114 101 91 82 77 71 66 62 56 49 38 25 10 344
225 216 218 163 218 238 86 99 96 117 120 78 125 93 83 53 103 119 136 120 132 142 124 132 136 140 140 140 142 140 137 136 134 130 125 116 106 95 87 82 73 70 69 63 47 27 13 358 338
228 268 241 298 256 169 75 62 6 88 78 54 71 71 91 70 91 135 134 132 140 128 122 137 140 144 145 145 146 143 141 136 137 140 134 124 118 114 111 102 92 85 75 55 30 15 19 39 352
245 238 255 243 183 113 85 80 83 101 73 73 111 101 90 113 133 139 142 155 130 118 133 139 147 148 148 149 152 148 144 143 146 149 144 142 149 159 161 136 126 119 89 51 42 52 94 99 347
256 274 260 309 338 88 95 52 83 73 62 46 14 90 113 139 140 149 152 155 126 128 125 144 154 152 150 151 152 151 151 155 159 162 164 174 188 199 189 165 145 120 82 77 76 89 103 123 231
246 280 297 149 184 348 124 91 67 85 83 110 21 108 144 140 151 151 157 146 137 133 140 151 152 158 161 159 160 159 161 164 171 178 187 200 211 216 209 180 149 116 95 106 111 122 131 172 248
263 273 276 233 125 231 170 121 96 90 114 73 63 97 129 138 154 161 156 151 147 154 141 153 158 161 169 160 164 162 167 174 183 194 209 214 217 193 181 117 121 107 116 134 139 145 169 186 202
231 260 261 25 24 90 86 69 127 194 156 126 107 106 125 149 157 163 163 164 157 167 149 154 158 163 164 157 151 172 174 184 193 197 198 219 227 173 173 144 133 129 135 152 151 175 202 205 177
226 263 312 100 26 342 63 177 54 83 248 153 134 135 145 156 164 165 172 171 163 167 160 157 149 173 158 145 160 173 173 186 196 203 196 216 232 162 145 108 94 147 171 172 176 186 214 234 247
236 268 296 45 141 241 312 24 294 162 2 98 126 143 152 162 171 170 176 170 162 164 165 154 144 185 156 136 172 175 175 182 191 202 200 230 229 160 84 63 308 220 171 163 200 185 219 249 29
239 267 284 222 230 232 65 263 210 281 139 115 128 150 159 166 175 173 176 168 162 163 163 164 146 196 141 147 181 177 185 183 196 189 189 233 232 193 131 165 216 218 152 186 198 128 110 89 83
250 244 264 295 232 250 206 240 219 221 135 131 142 163 168 170 178 169 175 168 160 159 161 164 155 182 158 162 187 181 192 184 188 180 181 228 227 251 290 169 201 93 124 165 171 123 116 217 98
281 289 269 256 255 248 246 273 259 263 150 155 155 170 172 177 182 173 176 165 164 159 163 159 161 168 189 193 189 194 188 179 195 183 177 194 238 264 194 21 10 113 164 133 52 119 157 211 103
274 261 262 261 245 246 193 272 279 194 154 168 172 175 173 175 182 176 177 175 168 167 166 169 175 167 196 178 183 206 192 224 191 210 163 178 209 249 273 168 165 124 120 342 102 104 164 167 130
240 250 239 245 251 221 194 246 271 151 169 206 181 183 180 173 178 171 177 185 169 170 166 179 184 169 180 178 187 217 224 198 213 195 185 173 188 209 242 254 127 112 133 164 178 194 173 149 146
247 225 231 254 266 187 229 271 249 210 232 196 205 207 187 179 175 170 179 183 177 180 169 179 179 182 167 189 181 197 232 210 226 205 201 168 180 211 176 210 124 127 167 193 158 254 193 154 180
271 309 304 309 324 312 238 278 295 297 275 269 186 226 219 183 175 170 178 174 179 183 177 180 179 187 163 176 189 197 206 209 203 229 197 170 184 191 168 184 130 140 178 215 160 132 317 271 146
316 299 277 291 303 299 291 276 257 262 269 266 274 269 258 196 176 172 172 175 178 177 180 182 189 178 188 182 186 201 208 211 213 211 238 205 180 181 160 170 157 167 190 158 164 156 164 224 173
264 266 281 269 287 291 278 261 259 253 262 242 268 229 322 309 217 174 171 179 177 179 177 177 189 193 198 209 185 194 213 223 203 207 207 204 188 183 165 180 171 172 160 176 182 183 187 182 284
251 238 230 268 278 272 285 303 244 217 222 237 243 207 239 356 262 165 171 176 182 177 179 183 179 183 198 203 227 210 213 214 217 202 208 203 192 187 183 177 179 164 178 167 168 201 215 153 193
259 347 338 294 282 288 279 262 270 293 182 197 171 177 64 47 43 35 19 170 178 184 189 184 185 186 189 195 210 235 227 228 242 224 222 202 191 192 179 175 175 178 189 174 198 187 194 208 171
291 282 259 262 256 253 249 254 277 73 164 128 78 77 65 70 66 48 31 40 33 29 8 311 188 192 195 193 194 205 222 215 226 227 220 218 194 196 191 179 179 191 195 192 193 190 189 207 178
205 248 256 233 224 240 301 215 241 77 88 85 90 79 59 59 65 62 39 36 34 36 23 17 19 197 205 215 214 212 221 220 215 222 219 217 214 196 203 182 186 195 198 209 194 191 188 193 202
200 226 258 300 308 342 200 253 253 107 115 101 94 87 81 62 57 64 58 31 63 58 47 29 17 16 34 216 225 231 227 237 239 225 234 225 224 208 199 193 194 199 200 211 193 191 189 182 206
252 238 233 278 294 280 289 287 13 82 85 85 89 81 74 79 77 59 79 38 33 33 42 33 12 9 22 7 322 226 231 220 226 232 225 233 253 242 197 196 200 201 197 198 201 198 190 194 192
274 304 301 244 253 268 277 42 80 108 109 106 95 87 69 54 55 51 46 45 31 25 37 35 13 354 18 11 357 345 316 233 229 228 230 234 237 245 253 203 205 201 201 195 197 206 201 196 194
214 213 241 258 281 316 310 64 101 73 101 100 92 73 65 43 47 22 28 26 19 21 23 16 6 348 14 13 346 339 341 346 274 231 235 233 241 248 247 231 209 210 199 200 199 206 201 203 196
308 301 309 296 277 280 293 304 101 119 99 100 96 80 57 50 37 8 30 8 11 8 6 356 351 346 356 4 342 332 337 342 350 300 251 248 245 235 240 241 213 207 205 202 206 207 202 199 199